This demonstration page uses our WeatherBlox Daily Observations layout. Learn more.

Hourly Observations for October 28, 2016

Temp ( °F °C ) Dew Point ( °F °C ) Humidity (%) Winds ( mph kmh ) Pressure ( in mb ) Visibility ( mi km ) Precip ( " mm )
12:15 am 00:15 Clear 63 17.1 45 7.4 53 53 S 14 22 29.91 1013 10 16.09344 0 0
12:35 am 00:35 Clear 63 17 46 7.6 54 54 S 17 28 29.91 1013 10 16.09344 0 0
12:55 am 00:55 Clear 62 16.8 46 7.8 56 56 S 15 24 29.91 1013 10 16.09344 0 0
1:15 am 01:15 Clear 62 16.5 46 8 57 57 S 15 24 29.91 1013 10 16.09344 0 0
1:35 am 01:35 Clear 61 16 47 8.1 60 60 S 13 20 29.91 1013 10 16.09344 0 0
1:55 am 01:55 Clear 60 15.7 47 8.3 62 62 S 14 22 29.91 1013 10 16.09344 0 0
2:15 am 02:15 Clear 60 15.7 47 8.5 62 62 S 12 19 29.91 1013 10 16.09344 0 0
2:35 am 02:35 Clear 61 15.9 47 8.5 62 62 S 14 22 29.88 1012 10 16.09344 0 0
2:55 am 02:55 Clear 61 16 47 8.5 61 61 SSW 10 17 29.88 1012 10 16.09344 0 0
3:15 am 03:15 Clear 61 16.1 47 8.5 61 61 S 13 20 29.88 1012 10 16.09344 0 0
3:35 am 03:35 Clear 59 15.2 47 8.5 65 65 S 10 17 29.91 1013 10 16.09344 0 0
3:55 am 03:55 Clear 59 15.2 48 8.7 65 65 S 10 17 29.91 1013 10 16.09344 0 0
4:15 am 04:15 Clear 59 15.2 48 8.7 65 65 S 10 17 29.91 1013 10 16.09344 0 0
4:35 am 04:35 Clear 58 14.7 48 8.7 68 68 S 10 17 29.91 1013 10 16.09344 0 0
4:55 am 04:55 Clear 58 14.5 48 8.7 68 68 S 10 17 29.88 1012 10 16.09344 0 0
5:15 am 05:15 Clear 58 14.5 48 9 70 70 S 12 19 29.88 1012 10 16.09344 0 0
5:35 am 05:35 Clear 57 13.7 48 8.7 72 72 S 10 17 29.88 1012 10 16.09344 0 0
5:55 am 05:55 Clear 57 13.8 48 8.8 72 72 S 9 15 29.88 1012 10 16.09344 0 0
6:15 am 06:15 Clear 55 13 48 8.9 76 76 S 9 15 29.88 1012 10 16.09344 0 0
6:35 am 06:35 Clear 54 12.2 47 8.6 79 79 S 8 13 29.88 1012 10 16.09344 0 0
6:55 am 06:55 Clear 55 13 48 9 77 77 S 10 17 29.88 1012 10 16.09344 0 0
7:15 am 07:15 Clear 55 12.6 48 8.7 77 77 S 9 15 29.88 1012 10 16.09344 0 0
7:35 am 07:35 Clear 55 12.6 48 8.8 78 78 S 7 11 29.88 1012 10 16.09344 0 0
7:55 am 07:55 Clear 54 12.2 48 8.7 79 79 S 7 11 29.88 1012 10 16.09344 0 0
8:15 am 08:15 Sunny 54 12.1 48 8.7 80 80 S 5 7 29.88 1012 10 16.09344 0 0
8:35 am 08:35 Sunny 52 11.2 47 8.6 84 84 S 8 13 29.91 1013 10 16.09344 0 0
8:55 am 08:55 Sunny 55 12.6 48 9 79 79 S 6 9 29.88 1012 10 16.09344 0 0
9:15 am 09:15 Sunny 56 13.2 48 8.8 75 75 SSW 7 11 29.91 1013 10 16.09344 0 0
9:35 am 09:35 Sunny 57 13.8 48 9 73 73 SSW 7 11 29.88 1012 10 16.09344 0 0
9:55 am 09:55 Sunny 59 14.8 48 9.1 69 69 SSW 8 13 29.91 1013 10 16.09344 0 0
10:15 am 10:15 Sunny 62 16.4 47 8.2 59 59 SW 10 17 29.85 1011 10 16.09344 0 0
10:35 am 10:35 Sunny 62 16.6 46 7.6 56 56 SW 12 19 29.85 1011 10 16.09344 0 0
10:55 am 10:55 Sunny 63 17.2 44 6.8 51 51 SW 13 20 29.85 1011 10 16.09344 0 0
11:15 am 11:15 Sunny 64 17.5 44 6.4 48 48 SW 10 17 29.85 1011 10 16.09344 0 0
11:35 am 11:35 Sunny 64 18 43 6.2 46 46 SW 13 20 29.85 1011 10 16.09344 0 0
11:55 am 11:55 Sunny 65 18.3 43 6.3 46 46 SW 10 17 29.85 1011 10 16.09344 0 0
12:15 pm 12:15 Sunny 66 19 43 6.2 43 43 WSW 9 15 29.83 1010 10 16.09344 0 0
12:35 pm 12:35 Sunny 68 20.2 43 6.1 40 40 WSW 7 11 29.83 1010 10 16.09344 0 0
12:55 pm 12:55 Sunny 69 20.7 42 5.5 37 37 WSW 7 11 29.83 1010 10 16.09344 0 0
1:15 pm 13:15 Sunny 71 21.9 41 5 33 33 SW 7 11 29.83 1010 10 16.09344 0 0
1:35 pm 13:35 Sunny 74 23.1 41 5.2 31 31 SW 6 9 29.77 1008 10 16.09344 0 0
1:55 pm 13:55 Sunny 77 24.9 40 4.6 27 27 WSW 7 11 29.77 1008 10 16.09344 0 0
2:15 pm 14:15 Sunny 78 25.7 40 4.4 25 25 WSW 6 9 29.74 1007 10 16.09344 0 0
2:35 pm 14:35 Sunny 80 26.5 39 4 23 23 W 8 13 29.71 1006 10 16.09344 0 0
2:55 pm 14:55 Sunny 81 27.2 38 3.6 22 22 W 8 13 29.71 1006 10 16.09344 0 0
3:15 pm 15:15 Sunny 81 27.2 38 3.2 21 21 WNW 6 9 29.71 1006 10 16.09344 0 0
3:35 pm 15:35 Sunny 81 27.3 38 3.5 22 22 W 5 7 29.71 1006 10 16.09344 0 0
3:55 pm 15:55 Sunny 82 27.6 38 3.2 21 21 WSW 5 7 29.71 1006 10 16.09344 0 0
4:15 pm 16:15 Sunny 82 27.5 38 3.3 21 21 SW 5 7 29.71 1006 10 16.09344 0 0
4:35 pm 16:35 Sunny 80 26.9 39 4 23 23 SSW 9 15 29.71 1006 10 16.09344 0 0
4:55 pm 16:55 Sunny 80 26.7 39 4 23 23 SSW 8 13 29.71 1006 10 16.09344 0 0
5:15 pm 17:15 Sunny 78 25.8 40 4.3 25 25 S 9 15 29.71 1006 10 16.09344 0 0
5:35 pm 17:35 Sunny 77 25 40 4.3 26 26 S 9 15 29.74 1007 10 16.09344 0 0
5:55 pm 17:55 Sunny 74 23.3 42 5.6 32 32 SSW 8 13 29.74 1007 7 11.265408 0 0
6:15 pm 18:15 Sunny 73 22.5 42 5.3 33 33 SSW 8 13 29.74 1007 10 16.09344 0 0
6:35 pm 18:35 Sunny 71 21.5 42 5.4 35 35 S 7 11 29.8 1009 10 16.09344 0 0
6:55 pm 18:55 Clear 69 20.8 42 5.7 37 37 SSW 9 15 29.8 1009 10 16.09344 0 0
7:15 pm 19:15 Clear 67 19.5 42 5.7 41 41 SSW 7 11 29.8 1009 10 16.09344 0 0
7:35 pm 19:35 Clear 67 19.5 42 5.5 40 40 SSW 7 11 29.8 1009 10 16.09344 0 0
7:55 pm 19:55 Clear 67 19.3 42 5.5 41 41 SW 7 11 29.83 1010 10 16.09344 0 0
8:15 pm 20:15 Clear 68 20 42 5.3 38 38 SW 6 9 29.83 1010 10 16.09344 0 0
8:35 pm 20:35 Clear 67 19.2 42 5.5 41 41 SW 6 9 29.83 1010 10 16.09344 0 0
8:55 pm 20:55 Clear 66 18.8 42 5.3 41 41 SSW 6 9 29.83 1010 10 16.09344 0 0
9:15 pm 21:15 Clear 65 18.3 42 5.4 43 43 SW 6 9 29.85 1011 10 16.09344 0 0
9:35 pm 21:35 Clear 65 18.6 42 5.3 42 42 SW 5 7 29.83 1010 10 16.09344 0 0
9:55 pm 21:55 Clear 64 18 41 5.2 43 43 Calm 29.85 1011 10 16.09344 0 0
10:15 pm 22:15 Clear 64 17.8 41 5.2 44 44 Calm 29.85 1011 10 16.09344 0 0
10:35 pm 22:35 Clear 63 17.3 41 5.1 45 45 SW 3 6 29.85 1011 10 16.09344 0 0
10:55 pm 22:55 Clear 61 16 41 5.1 49 49 Calm 29.85 1011 10 16.09344 0 0
11:15 pm 23:15 Clear 62 16.7 41 5.1 46 46 SW 3 6 29.85 1011 10 16.09344 0 0
11:35 pm 23:35 Clear 60 15.5 41 4.8 49 49 Calm 29.85 1011 10 16.09344 0 0
11:55 pm 23:55 Clear 60 15.8 41 5 49 49 Calm 29.83 1010 10 16.09344 0 0

Powered by AerisWeather